Theta_e
304 306 308 310 317 319 316 312 309 309 308 306 305 304 302 303 303 304 303 302 301 301 301 301 300 300 299 298 298 298 298 299 299 299 301 302 303 302 304 303 303 301 302
300 302 305 307 311 315 315 311 309 309 307 306 306 305 305 303 303 302 301 301 301 300 300 299 299 298 298 298 297 297 296 298 298 295 297 298 300 301 301 301 301 300 300
298 299 300 304 306 310 313 310 309 308 306 307 306 305 304 302 300 299 299 299 300 299 299 298 298 297 297 296 296 296 295 295 297 297 295 295 295 294 300 299 299 299 298
298 298 300 300 303 306 311 310 309 308 306 306 303 301 299 298 300 299 300 298 299 298 297 297 296 296 296 296 295 295 295 295 294 296 295 295 294 291 292 298 298 298 296
296 296 298 300 301 304 308 310 309 307 306 305 302 301 302 303 302 300 299 297 297 297 296 296 295 295 296 295 294 294 294 294 294 293 293 292 292 292 290 288 292 294 296
295 295 296 299 301 302 305 309 308 306 305 304 303 303 303 302 299 298 297 297 296 296 295 295 295 295 294 294 294 293 293 293 293 293 292 292 291 291 289 288 289 289 293
295 295 294 295 298 300 303 306 307 304 304 302 302 303 303 300 299 298 298 297 296 295 294 294 294 294 294 293 293 293 293 293 292 291 291 291 291 291 289 288 287 287 290
296 295 294 294 295 298 301 304 305 303 302 301 302 303 302 300 300 299 299 297 297 296 295 294 294 293 293 293 293 293 292 292 291 290 290 290 290 290 290 288 287 284 287
296 295 295 294 295 297 300 302 303 303 301 301 301 301 300 299 299 299 299 298 297 295 294 294 293 293 292 292 292 292 291 291 291 290 290 290 290 290 290 290 290 286 283
296 296 294 294 295 296 298 301 302 301 300 300 300 298 298 298 298 297 296 295 295 293 293 293 293 292 292 292 292 291 290 289 289 289 289 289 290 290 291 291 290 290 287
295 296 296 294 295 295 296 298 300 300 299 299 298 297 296 296 296 295 295 294 293 293 292 292 292 292 291 292 292 291 291 289 289 289 288 288 289 290 290 291 291 289 289
294 296 297 295 294 294 295 296 298 298 298 298 296 295 295 294 293 294 293 293 292 292 292 292 291 291 291 291 291 290 290 289 288 288 288 288 289 289 289 289 289 288 289
294 295 297 297 295 294 295 295 296 297 297 296 294 294 293 292 289 288 289 291 289 287 289 290 290 289 288 290 291 290 289 289 289 288 288 287 287 287 288 288 287 288 288
290 292 293 294 295 294 294 293 294 295 295 294 293 292 291 290 287 287 287 286 286 285 286 288 286 286 285 285 285 288 287 288 288 288 287 287 287 287 287 286 287 287 286
287 288 289 291 292 292 291 289 291 293 293 291 290 288 288 287 286 286 285 285 285 285 285 285 284 285 285 286 286 287 288 287 286 286 287 287 286 285 286 286 286 286 285
285 285 286 287 287 288 288 287 287 288 291 288 288 287 286 286 286 286 285 285 285 284 285 284 284 283 285 288 289 288 287 285 285 285 286 286 285 286 286 287 286 286 285
283 284 285 286 287 287 288 287 287 288 287 287 287 287 286 286 285 285 284 284 284 285 284 284 284 284 285 287 287 287 286 285 285 285 284 284 285 285 285 286 286 286 285
283 284 285 285 287 287 287 287 287 287 287 287 287 286 286 286 285 284 284 284 285 284 284 284 284 284 284 285 286 286 285 284 284 283 283 284 284 285 284 284 284 284 284
284 284 285 286 286 286 287 287 286 286 286 287 287 286 286 286 285 284 284 285 284 284 284 284 284 283 284 284 284 285 284 283 283 282 282 282 282 284 284 283 282 283 284
285 284 286 286 286 286 285 286 286 286 286 287 287 287 287 286 285 285 284 285 285 284 284 284 284 283 283 284 284 285 285 283 283 282 281 281 281 284 283 283 282 281 282
285 286 286 286 285 284 285 285 286 286 287 288 288 287 287 286 286 285 285 285 284 284 284 284 284 283 282 283 284 285 284 283 283 282 282 282 283 283 283 283 282 282 281
284 285 285 285 284 284 283 284 286 287 287 288 287 287 286 287 286 285 285 283 283 283 283 283 283 282 282 282 284 285 286 285 283 281 282 282 283 283 282 281 281 279 278
284 285 284 283 283 283 283 283 286 286 286 287 287 286 286 286 285 285 283 282 282 283 282 281 282 282 282 281 283 284 285 286 282 282 282 282 282 281 279 280 278 275 278
284 283 283 281 280 281 281 281 284 284 286 286 286 285 284 284 284 285 284 283 282 282 283 282 281 282 281 280 281 281 283 284 284 283 279 280 280 280 278 274 276 276 276
282 282 281 280 279 279 278 279 280 282 284 285 284 283 284 284 283 284 284 284 284 285 284 284 284 283 282 282 283 282 282 283 283 280 278 277 276 276 276 276 275 275 275
280 279 278 277 278 277 276 276 277 280 283 282 281 282 283 283 282 283 283 286 287 286 287 288 286 285 286 287 285 285 285 285 285 278 277 276 276 275 276 277 276 275 272
Wind_Speed
16 12 13 13 15 17 18 19 18 16 12 10 9 7 8 6 6 5 7 5 4 4 3 2 2 1 1 3 3 4 4 3 6 5 2 1 2 3 4 3 4 7 7
16 16 15 15 16 18 19 18 19 18 14 10 9 6 8 6 7 6 6 5 5 4 3 2 2 1 1 1 3 3 3 2 4 4 4 1 3 2 0 4 3 6 7
15 15 15 16 17 18 19 20 20 20 16 14 9 7 7 7 6 7 6 6 6 4 4 3 2 1 1 2 2 3 3 2 2 4 3 2 2 4 2 3 4 5 7
12 13 16 17 17 19 19 20 19 19 16 17 13 15 10 10 7 8 7 6 6 5 4 3 2 1 0 0 1 2 2 1 2 1 3 3 3 3 3 1 2 6 7
9 10 13 15 16 15 17 19 19 19 18 17 15 12 10 8 8 8 10 8 6 6 5 4 3 2 1 2 2 1 1 1 1 1 1 2 1 1 2 4 5 5 4
11 9 9 9 10 12 14 17 20 20 19 18 16 16 14 11 9 9 8 7 6 5 5 4 3 3 3 3 2 3 3 1 1 1 1 1 1 1 1 3 6 8 3
16 13 10 6 6 10 14 15 19 18 18 18 16 15 13 13 13 12 8 9 7 6 6 6 5 5 4 3 3 3 3 2 1 1 1 0 1 1 1 3 4 4 4
16 14 11 7 6 8 11 13 16 17 17 17 16 13 13 8 8 10 8 7 6 7 8 7 5 5 5 4 3 3 2 2 1 1 1 1 1 2 3 2 3 4 3
17 16 13 9 4 5 9 12 13 14 15 16 14 13 12 11 10 10 9 7 7 7 9 8 6 6 6 5 4 3 3 2 1 1 1 2 2 2 2 3 2 2 3
19 14 12 10 6 5 7 9 11 13 14 15 13 12 13 11 11 10 10 9 8 9 9 8 7 7 6 6 5 4 4 3 1 1 3 3 2 3 3 3 4 4 4
18 16 11 9 6 5 6 7 9 11 13 13 12 13 12 11 11 10 10 9 9 9 9 8 8 7 7 6 5 5 5 4 3 1 1 2 3 2 3 3 3 3 4
19 16 12 8 7 5 5 7 8 10 12 12 12 12 12 12 11 10 10 10 9 9 8 8 7 7 7 6 5 6 5 5 4 3 3 2 1 3 3 2 4 4 5
20 18 14 13 7 6 6 7 8 9 11 11 12 12 12 12 9 9 7 9 8 7 7 8 7 6 4 4 6 5 5 4 4 5 3 2 2 3 2 3 3 3 4
20 18 16 15 14 8 6 7 8 9 10 11 12 13 13 12 12 11 10 9 10 10 8 6 6 6 6 5 3 3 4 3 3 2 2 3 3 2 3 3 4 4 5
20 16 16 15 14 11 5 4 6 9 10 12 10 10 9 10 11 11 10 9 9 9 8 9 6 6 5 6 6 5 4 3 3 2 3 3 1 3 3 3 3 5 5
17 18 18 17 15 13 7 7 7 6 9 10 12 10 11 11 12 11 11 10 9 10 8 8 8 7 5 10 11 6 4 4 3 3 2 3 3 3 4 6 7 8 4
18 21 19 17 16 14 11 8 10 8 8 11 11 11 13 12 12 11 11 11 11 9 9 8 8 8 7 13 12 9 3 4 4 3 2 1 1 3 3 5 7 5 5
19 21 17 18 17 15 12 10 7 11 12 12 12 13 13 13 12 12 12 11 10 11 10 9 8 7 6 13 13 11 4 3 3 4 3 3 2 1 4 5 4 4 3
17 18 17 18 18 16 13 11 9 11 13 14 14 14 14 14 14 14 13 11 10 10 9 7 9 8 7 15 14 11 5 4 4 3 3 3 2 3 4 4 4 4 3
15 19 20 19 16 15 13 12 12 12 15 15 14 14 14 15 16 15 14 11 9 9 7 7 8 9 7 15 15 13 4 4 3 4 4 8 5 5 4 2 3 4 4
17 18 18 17 17 14 11 13 11 14 12 11 12 13 15 15 14 13 10 11 10 8 8 9 7 8 7 9 17 17 6 4 4 3 4 4 9 7 4 3 3 4 4
18 16 18 16 15 11 9 11 12 7 8 11 12 12 12 10 10 13 10 10 10 10 9 7 6 6 7 10 16 18 17 9 4 4 2 3 8 6 5 3 3 4 4
16 14 16 16 12 9 8 11 8 6 9 10 11 11 11 10 11 13 12 10 10 9 8 8 9 7 6 6 15 17 17 15 6 2 4 6 7 5 4 4 2 3 2
15 14 14 12 12 10 10 9 7 1 8 10 10 9 10 10 9 8 8 9 10 9 8 7 7 6 6 7 6 7 9 12 9 7 4 6 5 5 1 1 3 1 1
13 12 11 10 11 10 10 10 8 4 2 5 7 9 8 10 9 9 9 9 10 11 11 10 9 9 8 8 13 12 9 8 9 7 4 3 2 3 3 2 2 2 2
13 11 9 10 9 8 9 10 10 7 2 4 6 7 7 7 7 7 6 9 6 12 10 9 9 4 4 12 18 19 18 18 17 5 4 5 5 5 4 4 3 3 3
Wind_Direction
246 250 250 209 204 195 186 185 177 175 167 162 159 159 169 158 152 157 153 149 144 139 137 114 102 25 7 7 345 342 336 340 349 297 331 201 167 38 58 30 21 8 17
239 231 223 218 197 198 190 185 181 175 173 169 165 161 158 165 159 153 160 154 150 150 137 132 134 71 326 6 357 2 350 4 14 337 280 315 162 118 148 20 19 13 5
256 231 219 216 197 198 194 189 185 177 174 170 160 148 124 137 157 170 165 167 161 152 151 143 112 114 342 344 359 7 16 352 61 21 347 297 353 332 102 28 1 16 353
267 253 236 210 209 202 194 191 184 178 178 170 160 163 167 168 183 174 165 158 161 162 152 139 136 128 67 355 22 34 358 333 54 136 42 25 355 347 310 292 358 7 351
338 303 252 241 209 203 195 189 183 178 177 175 169 170 182 170 153 157 154 159 160 164 155 151 149 140 170 132 107 127 88 68 340 24 69 63 13 337 336 306 328 342 357
344 321 296 261 211 194 198 192 183 182 178 174 177 179 177 151 151 157 162 163 166 165 164 154 162 150 149 164 136 141 117 84 58 24 66 7 344 74 321 308 323 318 312
13 1 342 278 238 208 197 193 189 184 177 175 179 180 168 160 165 161 165 163 166 171 172 173 177 161 151 152 153 142 112 108 90 108 112 18 261 319 272 282 309 314 328
20 14 4 331 260 217 199 199 191 183 179 177 178 175 159 162 163 165 162 162 167 169 155 171 172 148 159 164 173 146 125 128 161 199 191 269 283 271 271 301 318 311 266
13 9 3 0 317 243 219 204 196 186 181 177 171 166 155 162 158 157 157 160 149 146 163 163 163 159 166 170 162 141 141 142 117 225 240 231 241 267 283 275 276 293 315
359 7 359 358 333 275 236 217 201 196 185 177 171 162 161 161 149 153 158 154 147 154 159 164 161 167 168 167 164 143 140 137 127 211 250 256 252 248 244 265 258 247 258
356 355 354 344 332 297 256 217 209 189 186 177 170 158 156 153 151 156 152 154 149 154 162 164 161 171 173 174 169 153 148 152 159 183 254 273 271 271 273 275 280 278 269
342 338 341 336 326 291 255 229 206 192 187 178 166 158 149 151 152 154 153 153 154 158 163 161 162 171 174 178 174 170 161 160 166 169 190 211 263 285 279 264 285 285 287
333 336 341 342 323 283 243 230 216 195 185 174 165 158 154 155 149 146 143 147 138 140 152 165 164 166 156 184 182 175 178 181 174 187 192 225 266 281 297 302 298 290 289
334 335 335 331 329 307 246 229 220 202 186 173 171 165 162 156 155 153 149 145 157 159 170 160 147 152 166 165 184 189 189 202 198 175 208 216 235 265 304 305 295 292 291
327 332 332 331 324 322 258 242 222 205 189 180 173 169 152 144 150 153 156 154 158 168 161 158 157 159 173 173 182 195 207 197 196 181 213 221 282 292 278 294 310 305 294
323 323 321 319 315 314 284 228 219 208 191 182 178 159 151 153 160 156 159 159 160 171 157 166 169 174 186 188 183 188 184 179 197 196 191 241 233 259 301 293 298 295 310
321 320 319 314 310 306 300 257 222 194 190 190 178 169 164 164 165 160 161 167 170 167 174 176 175 186 188 190 192 194 188 188 185 193 205 228 234 257 309 310 304 297 290
322 315 312 308 306 302 289 278 208 196 197 195 188 173 172 168 163 164 172 171 173 177 180 185 184 185 190 191 193 190 189 196 191 195 200 219 228 290 308 317 313 313 303
310 304 302 302 300 294 286 279 230 202 199 201 191 181 175 168 169 176 178 175 172 179 184 187 181 189 187 192 192 188 187 204 204 193 201 217 217 241 279 305 307 313 306
304 306 307 303 296 294 287 272 239 207 206 203 195 180 178 176 179 179 177 174 177 178 173 179 191 189 186 190 192 189 191 192 197 184 199 215 226 246 253 288 301 309 332
304 308 314 304 303 296 286 270 239 222 212 192 187 185 182 183 181 172 171 167 170 166 176 185 186 189 189 184 195 198 193 196 187 193 191 202 213 231 238 265 261 284 324
313 318 314 310 308 299 290 271 248 224 194 192 184 184 183 179 170 167 162 165 171 174 182 185 191 190 182 192 200 202 207 205 190 194 173 170 200 223 227 245 263 300 300
312 319 314 310 317 321 311 290 274 189 183 185 186 182 172 172 170 171 165 166 175 186 188 195 192 192 180 183 200 206 213 214 209 157 184 191 196 209 224 232 282 283 258
313 318 316 314 325 343 334 323 308 281 182 187 175 163 166 165 166 173 169 178 178 183 183 186 201 205 183 175 174 198 209 217 206 188 179 190 191 206 201 175 207 220 358
312 318 312 312 323 343 336 338 334 329 215 167 157 153 166 172 170 184 176 194 190 188 192 197 181 186 201 202 187 182 187 192 195 145 127 170 192 209 203 194 177 169 172
307 309 313 315 328 344 335 338 338 325 189 154 156 160 159 173 168 170 165 207 192 189 194 181 175 178 159 172 191 196 199 194 178 161 176 197 200 209 198 197 183 168 175